Home   Weather   California City   Past weeks
Flag for USA

Past Weather in California City, California, USA — Yesterday and Last 2 Weeks

Now
54 °F

Clear.


Feels Like: 53 °F
Forecast: 76 / 41 °F
Wind: 3 mph from Northwest

Location: Mojave Airport

Current Time: Oct 19, 2019 at 2:58:31 am

Latest Report: Oct 19, 2019 at 2:00 am


Visibility: 10 mi

Pressure: 29.97 "Hg (27.47 "Hg at 727m altitude)

Humidity: 30%

Dew Point: 23 °F

Location of California CityLocation

Past Weather in California City — Graph

°F

California City Temperature Yesterday

Maximum temperature yesterday: 72 °F (at 1:00 pm)
Minimum temperature yesterday: 54 °F (at 12:20 am)
Average temperature yesterday: 61 °F

High & Low Weather Summary for the Past Weeks

 TemperatureHumidityPressure
High90 °F (Oct 8, 2:00 pm)59% (Oct 17, 6:20 pm)30.20 "Hg (Oct 17, 6:20 pm)
Low39 °F (Oct 12, 7:00 am)4% (Oct 10, 2:20 pm)29.74 "Hg (Oct 17, 9:40 pm)
Average64 °F20%30.00 "Hg
* Reported Oct 4 1:20 am — Oct 19 1:20 am, California City. Weather by CustomWeather, © 2019

Note: Actual official high and low records may vary slightly from our data, if they occured in-between our weather recording intervals... More about our weather records

Advertising

California City Weather History for the Previous 24 Hours

Scroll right to see more
 ConditionsComfort  
Time TempWeatherWind HumidityBarometerVisibility
1:20 am
Sat, Oct 19
57 °FClear.9 mph27%29.97 "Hg10 mi
1:00 am54 °FClear.No wind28%29.97 "Hg10 mi
12:40 am55 °FClear.6 mph26%29.96 "Hg10 mi
12:20 am57 °FClear.8 mph25%29.96 "Hg10 mi
12:00 am59 °FClear.8 mph25%29.97 "Hg10 mi
11:40 pm
Fri, Oct 18
57 °FClear.5 mph23%29.97 "Hg10 mi
11:20 pm59 °FClear.12 mph27%29.97 "Hg10 mi
10:40 pm61 °FClear.7 mph25%29.97 "Hg10 mi
10:20 pm61 °FClear.6 mph20%29.97 "Hg10 mi
10:00 pm59 °FClear.21 mph27%29.95 "Hg10 mi
9:40 pm61 °FClear.24 mph25%29.96 "Hg10 mi
9:20 pm59 °FClear.25 mph25%29.94 "Hg10 mi
9:00 pm59 °FClear.12 mph29%29.97 "Hg10 mi
8:40 pm59 °FClear.12 mph27%29.97 "Hg10 mi
8:20 pm61 °FClear.29 mph25%29.94 "Hg10 mi
8:00 pm61 °FClear.38 mph25%29.95 "Hg10 mi
7:20 pm61 °FClear.23 mph23%29.97 "Hg10 mi
7:00 pm61 °FClear.9 mph25%29.97 "Hg10 mi
6:40 pm61 °FClear.14 mph27%29.96 "Hg10 mi
6:20 pm61 °FClear.15 mph34%29.97 "Hg10 mi
6:00 pm63 °FSunny.18 mph32%29.97 "Hg10 mi
5:40 pm63 °FSunny.23 mph32%29.96 "Hg10 mi
5:00 pm66 °FSunny.22 mph28%29.94 "Hg10 mi
4:40 pm66 °FSunny.10 mph28%29.96 "Hg10 mi
4:20 pm66 °FSunny.14 mph30%29.97 "Hg10 mi
4:00 pm66 °FSunny.9 mph30%29.98 "Hg10 mi
3:40 pm68 °FSunny.20 mph28%29.98 "Hg10 mi
3:20 pm68 °FSunny.22 mph28%29.98 "Hg10 mi
2:40 pm72 °FSunny.22 mph25%29.97 "Hg10 mi
2:20 pm72 °FSunny.20 mph23%29.98 "Hg10 mi
1:40 pm72 °FSunny.12 mph20%29.99 "Hg10 mi
1:20 pm72 °FSunny.6 mph20%30.00 "Hg10 mi
1:00 pm72 °FSunny.6 mph22%30.01 "Hg10 mi
12:40 pm70 °FSunny.No wind21%30.02 "Hg10 mi
12:20 pm70 °FSunny.3 mph25%30.02 "Hg10 mi
11:40 am70 °FSunny.9 mph25%30.04 "Hg10 mi
11:20 am68 °FSunny.7 mph24%30.04 "Hg10 mi
10:40 am64 °FSunny.6 mph28%30.04 "Hg10 mi
10:20 am64 °FSunny.9 mph30%30.03 "Hg10 mi
10:00 am64 °FSunny.7 mph28%30.03 "Hg10 mi
9:40 am64 °FSunny.No wind32%30.03 "Hg10 mi
9:20 am64 °FSunny.12 mph34%30.03 "Hg10 mi
9:00 am61 °FSunny.10 mph36%30.03 "Hg10 mi
8:40 am59 °FSunny.12 mph42%30.02 "Hg10 mi
8:20 am59 °FSunny.17 mph42%30.00 "Hg10 mi
8:00 am57 °FSunny.14 mph44%29.99 "Hg10 mi
7:40 am55 °FSunny.16 mph47%29.98 "Hg10 mi
7:20 am54 °FSunny.9 mph54%29.98 "Hg10 mi
7:00 am54 °FClear.7 mph54%29.97 "Hg10 mi
6:40 am54 °FClear.17 mph54%29.96 "Hg10 mi
6:20 am54 °FClear.8 mph47%29.96 "Hg10 mi
5:40 am54 °FClear.21 mph54%29.94 "Hg10 mi
5:20 am54 °FClear.15 mph51%29.93 "Hg10 mi
4:40 am55 °FClear.12 mph47%29.93 "Hg10 mi
4:20 am55 °FClear.14 mph44%29.91 "Hg10 mi
4:00 am55 °FClear.23 mph44%29.87 "Hg10 mi
3:40 am55 °FClear.30 mph44%29.86 "Hg10 mi
3:20 am54 °FClear.33 mph47%29.87 "Hg10 mi
3:00 am54 °FClear.35 mph51%29.86 "Hg10 mi
2:40 am54 °FClear.30 mph51%29.87 "Hg10 mi
2:20 am54 °FClear.31 mph51%29.86 "Hg10 mi
2:00 am54 °FClear.36 mph54%29.85 "Hg10 mi
Weather by CustomWeather, © 2019

See weather overview